Regional Weather Roundup
Issued by NWS San Diego, CA

Home | Current Version | Previous Version | Text Only | Print | Product List | Glossary On
Versions: 1 2 3 4 5 6 7 8 9 10 11 12 13 14 15 16 17 18 19 20 21 22 23 24 25 26 27 28 29 30 31 32 33 34 35 36 37 38 39 40 41 42 43 44 45 46 47 48 49 50
686
ASUS46 KSGX 191011
RWRSGX

SAN DIEGO HOURLY WEATHER ROUNDUP
NATIONAL WEATHER SERVICE SAN DIEGO CA
200 AM PST THU JAN 19 2017

NOTE: "FAIR" INDICATES FEW OR NO CLOUDS BELOW 12,000 FEET WITH NO
SIGNIFICANT WEATHER AND/OR OBSTRUCTIONS TO VISIBILITY.

CAZ042-043-060-061-PZZ750-775-191100-

GREATER SAN DIEGO AREA

CITY           SKY/WX    TMP DP  RH WIND       PRES   REMARKS
SAN DIEGO AP   MOCLDY    57  48  72 SW8       30.03R
NATIONAL CITY    N/A     55  51  87 SW3       30.02R
CHULA VISTA      N/A     53  51  92 W2        29.93R
IMPERIAL BEACH MOCLDY    56  48  74 S8        30.03R
BROWN FIELD    CLOUDY    52  48  86 S8        30.00R
MIRAMAR MCAS   MOCLDY    56  49  77 W6        30.01R
MONTGOMERY FLD CLOUDY    53  48  83 W6        30.02R

$$

NORTH SAN DIEGO COUNTY

CITY           SKY/WX    TMP DP  RH WIND       PRES   REMARKS
CAMP PENDLETON CLOUDY    52  50  93 W3        30.04R
OCEANSIDE AP   CLOUDY    54  50  86 W6        30.03R
OCEANSIDE HBR    N/A     56  53  88 SW7       30.07R
VISTA            N/A     51  46  83 CALM      30.01R
CARLSBAD       CLOUDY    54  50  86 W6        30.02R
DEL MAR          N/A     55  51  87 CALM      30.05R
LA JOLLA SCRIP   N/A     54  51  89 S2        30.02R
FALLBROOK        N/A     51  51  99 W3        30.02F
ESCONDIDO        N/A     53  46  78 SW6       30.04R
SAN MARCOS       N/A     53  46  77 W5        30.05R

$$

EAST SAN DIEGO COUNTY

CITY           SKY/WX    TMP DP  RH WIND       PRES   REMARKS
RAMONA         CLOUDY    48  45  89 CALM      30.00R
SANTEE LAKES     N/A     53  49  87 CALM      30.01R
LA MESA          N/A     53  46  78 CALM      29.95R
JAMUL            N/A     51  45  79 CALM      30.02R
DESCANSO N       N/A     45  39  80 E3        29.99F
CAMPO            N/A     44  43  96 CALM      29.97F

$$

ORANGE COUNTY AND THE LOS ANGELES BASIN

CITY           SKY/WX    TMP DP  RH WIND       PRES   REMARKS
JOHN WAYNE AP  CLOUDY    56  50  80 S8        30.04R
LAGUNA BEACH     N/A     55  52  91 SE3       30.00R
LOS ALAMITOS   LGT RAIN  54  52  94 SE6       30.03R
FULLERTON      LGT RAIN  56  49  77 CALM      30.03R
LONG BEACH     LGT RAIN  54  50  86 SE5       30.03S
L.A. AP        LGT RAIN  54  51  90 SE5       30.03S FOG
L.A. DOWNTOWN  RAIN      54  50  86 CALM      30.03R FOG

$$

THE INLAND EMPIRE

CITY           SKY/WX    TMP DP  RH WIND       PRES   REMARKS
CORONA         CLOUDY    52  46  80 W6        30.04R
CHINO          CLOUDY    52  49  89 SW6       30.04R FOG
ONTARIO        CLOUDY    51  46  83 SW3       30.02R
SAN BERNARDINO CLOUDY    52  46  80 W6        30.01R HAZE
RIVERSIDE AP   CLOUDY    51  49  92 W5        30.02R
MORENO VALLEY    N/A     49  48  98 CALM      28.12S
MARCH ARB      CLOUDY    48  48 100 S3        30.00R
HORSETHIEF CYN   N/A     49  44  83 S2        30.04R
PERRIS           N/A     48  47  97 S2        30.04S
HEMET EAST       N/A     47  39  76 CALM      30.05F
FRENCH VALLEY  NOT AVBL
TEMECULA         N/A     49  49  97 W3        30.06F

$$

SAN BERNARDINO AND RIVERSIDE COUNTY MOUNTAINS

CITY           SKY/WX    TMP DP  RH WIND       PRES   REMARKS
BIG BEAR AP    DRIZZLE   34  32  93 W14G23    29.94F WCI  24
ANGELUS OAKS     N/A     36  33  88 CALM      29.98S
PINE COVE        N/A     36  35  97 NW5       30.02S WCI  32

$$

SOUTHERN DESERT INCLUDING THE COACHELLA VALLEY

CITY           SKY/WX    TMP DP  RH WIND       PRES   REMARKS
PALM SPRINGS   CLOUDY    54  41  61 E5        29.97F
PALM DESERT      N/A     55  40  56 CALM      27.75F
THERMAL        CLOUDY    52  46  80 SE7       29.95F
BLYTHE         CLOUDY    54  47  77 S13       29.99F
IMPERIAL AP    CLOUDY    55  51  86 CALM      29.97F
EL CENTRO NAS  CLOUDY    53  48  83 SE6       29.99F
YUMA AZ        LGT RAIN  53  44  71 SE6       30.02

$$

UPPER DESERT

CITY           SKY/WX    TMP DP  RH WIND       PRES   REMARKS
VICTORVILLE AP MOCLDY    45  37  76 SW13      29.91S
HESPERIA         N/A     47  36  65 SW3       30.10R
PALMDALE       MOCLDY    49  40  71 SW26      29.92R
LANCASTER      CLOUDY    46  40  79 SW24G30   29.93F
EDWARDS AFB    LGT RAIN  46  39  76 W16       29.89S
DAGGETT        CLOUDY    46  43  89 CALM      29.92S
29 PALMS N     CLOUDY    48  39  71 SE7       29.98F
NEEDLES        LGT RAIN  54  43  66 SW3       29.97F

$$

REGIONAL REPORTS

CITY           SKY/WX    TMP DP  RH WIND       PRES   REMARKS
SANTA BARBARA  HVY RAIN  51  50  96 E13       29.97S FOG
SANDBERG       SNOW      38  36  92 S29G43    29.92F VSB<1/4 WCI  26
LAS VEGAS NV   CLOUDY    50  37  61 S5        29.87F
PHOENIX AZ     MOCLDY    49  42  77 E10       30.01S
TIJUANA        MOCLDY    55  43  62 CALM      30.03R
ENSENADA NW      N/A     58  32  38 E15       29.98F

$$

OFFSHORE ISLANDS

CITY           SKY/WX    TMP DP  RH WIND       PRES   REMARKS
CATALINA ARPT  CLOUDY    50  48  93 S9        30.01F
SAN NICOLAS IS CLOUDY    54  32  43 S22       29.99S FOG

$$

MARINE AND OFFSHORE BUOY REPORTS

STATION/POSITION SKY/WX   TEMP    WIND        PRES    VSBY  SWELL
                          AIR SEA DIR/SP/G                  HT/PER/DIR
                          (F)     (DEG/KT/KT) (MB)    (MI)  (FT/S/D)
TANNER BANKS               60 60  230/ 19/ 25 1016.2F         7/280/14
S CLEMENTE BASIN           59 61  180/ 16/ 17 1016.6R         5/260/13
SAN NICOLAS IS.               60                N/A           5/300/14
SO. S. ROSA ISLA           56 57  200/ 17/ 21 1013.8F         7/270/12
W. S. BARBARA CH           56 58  240/ 10/ 19 1013.5F         8/280/13
M. S. BARBARA CH                  100/ 14/ 17 1015.0F
S. MONICA BASIN            56 59  160/ 14/ 17 1015.5F         3/250/14
S PEDRO CHANNEL               60                N/A           3/270/14
CMP PENDLETON NS              59                N/A           2/240/14
OCEANSIDE OFFSHR              60                N/A           2/240/14
TORREY PINES OTR              60                N/A           3/280/13
POINT LOMA SOUTH              60                N/A           3/290/13

$$





USA.gov is the U.S. government's official web portal to all federal, state and local government web resources and services.